Location: Rancho Del Sol Observatory
(38.7214°N, 120.6350°W)
Time: 22:22:24
(UTC-08:00)

A-11 Canister half - Pass Details

Date: 06 February 2020
Orbit: 1517 x 1683 km, 47.2° (Epoch: 19 February)

Event Time Altitude Azimuth Distance (km) Brightness Sun altitude
Rises 02:17:02 0° 300° (WNW) 4,703 - -55.0°
Reaches altitude 10° 02:20:06 10° 299° (WNW) 3,704 - -54.5°
Maximum altitude 02:29:24 81° 215° (SW) 1,536 - -52.9°
Exits shadow 02:38:15 12° 129° (SE) 3,551 11.0 -51.4°
Drops below altitude 10° 02:38:38 10° 129° (SE) 3,678 11.1 -51.3°
Sets 02:41:41 0° 129° (SE) 4,668 11.8 -50.8°
